Starlink 36633

operational
NORAD ID: 67632 Int'l Des: 2026-020 Owner: SPXS Country: US Constellation: starlink
LEOCIRCULAR

About Starlink 36633

Description loading...

Live Position

Loading 3D Globe...

Upcoming Passes

Altitude History

Altitude vs Time

uPlot chart will show altitude changes over time

Two-Line Element Set

1 67632U 26020R 26066.16670139 -.01877490 00000-0 -15519-1 0 9997
2 67632 42.9994 157.0421 0001586 265.8049 75.4782 15.72728737 5992
Epoch: Mar 7, 2026 • Age: 14 hours

Current Status

Altitude 368.3 km
Velocity 7.69 km/s
Sub-Earth Point -43.06°S, 48.18°E
Launch Date Jan 30, 2026
Age 36 days
Type internet

Technical Details

Classification Payload
Mass 575.00 kg
Dry Mass 530.00 kg
Total Mass 575.00 kg
Length 0.30 m
Diameter 4.10 m
Span 29.00 m
Shape Box + pan
Manufacturer SPXS
Bus Type Starlink V2MO
Phase Status In Orbit
Owner/State SPXS/US

Large Constellations

Loading constellations...